Weather History for KRNH - August, 2013

Change the Weather History Date:

Saturday, August 24, 2013

  Actual Average (KMSP) Record (KMSP)
Temperature  
Mean Temperature 78 °F 70 °F  
Max Temperature 88 °F 79 °F 98 °F (1948)
Min Temperature 68 °F 61 °F 43 °F (1887)
Degree Days  
Heating Degree Days 0 1  
Month to date heating degree days 3  
Since 1 June heating degree days 52  
Since 1 July heating degree days 8  
Cooling Degree Days 13 6  
Month to date cooling degree days 170  
Year to date cooling degree days 646  
Since 1 June cooling degree days 604  
Growing Degree Days 28 (Base 50)    
Moisture  
Dew Point 64 °F    
Average Humidity 65    
Maximum Humidity 82    
Minimum Humidity 50    
Precipitation  
Precipitation 0.00 in 0.13 in 4.08 in (1893)
Month to date precipitation 3.44  
Year to date precipitation 21.31  
Snow  
Snow 0.00 in 0.00 in 0.00 in ()
Month to date snowfall 0.0  
Since 1 June snowfall 0.0  
Since 1 July snowfall 0.0  
Snow Depth -    
Sea Level Pressure  
Sea Level Pressure 30.06 in    
Wind  
Wind Speed 10 mph (South)    
Max Wind Speed 21 mph    
Max Gust Speed 31 mph    
Visibility 10 miles    
Events      
T = Trace of Precipitation, MM = Missing Value Source: NWS Daily Summary

Daily Weather History Graph

Daily Weather History Graph

Search for Another Location

Airport or City:

Trip Planner

Search our weather history database for the weather conditions in past years. The results will help you decide how hot, cold, wet, or windy it might be!

Date:

Astronomy

Aug. 24, 2013 Rise Set
Actual Time 6:22 AM CDT 8:01 PM CDT
Civil Twilight 5:51 AM CDT 8:32 PM CDT
Nautical Twilight 5:13 AM CDT 9:09 PM CDT
Astronomical Twilight 4:32 AM CDT 9:50 PM CDT
Moon 9:40 PM CDT (8/24) 10:36 AM CDT (8/24)
Length of Visible Light 14h 40m
Length of Day
13h 38m
Waning Gibbous, 84% of the Moon is Illuminated
Aug 24
Waning Gibbous
Aug 28
Last Quarter
Sep 5
New
Sep 12
First Quarter
Sep 19
Full

Hourly Weather History & Observations

Time (CDT) Temp. Heat Index Dew Point Humidity Pressure Visibility Wind Dir Wind Speed Gust Speed Precip Events Conditions
12:15 AM 69.3 °F - 63.0 °F 80% 30.10 in 10.0 mi SSE 5.8 mph - N/A   Clear
12:35 AM 69.1 °F - 63.0 °F 81% 30.10 in 10.0 mi SSE 5.8 mph - N/A   Clear
12:55 AM 68.9 °F - 62.8 °F 81% 30.10 in 10.0 mi SE 3.5 mph - N/A   Clear
1:15 AM 68.2 °F - 62.6 °F 82% 30.10 in 10.0 mi SE 4.6 mph - N/A   Clear
1:35 AM 68.2 °F - 62.6 °F 82% 30.10 in 10.0 mi SSE 4.6 mph - N/A   Clear
1:55 AM 68.4 °F - 62.2 °F 81% 30.10 in 10.0 mi SSE 4.6 mph - N/A   Clear
2:15 AM 68.4 °F - 61.9 °F 80% 30.10 in 10.0 mi SSE 4.6 mph - N/A   Clear
2:35 AM 68.9 °F - 61.7 °F 78% 30.10 in 10.0 mi SSE 5.8 mph - N/A   Clear
2:55 AM 68.9 °F - 61.3 °F 77% 30.11 in 10.0 mi South 5.8 mph - N/A   Clear
3:15 AM 68.7 °F - 60.8 °F 76% 30.11 in 10.0 mi SSE 5.8 mph - N/A   Clear
3:35 AM 68.4 °F - 60.8 °F 77% 30.11 in 10.0 mi SSE 5.8 mph - N/A   Clear
3:55 AM 68.2 °F - 60.3 °F 76% 30.11 in 10.0 mi SSE 5.8 mph - N/A   Clear
4:15 AM 68.0 °F - 59.9 °F 75% 30.11 in 10.0 mi SSE 5.8 mph - N/A   Clear
4:35 AM 68.4 °F - 59.9 °F 74% 30.11 in 10.0 mi SSE 6.9 mph - N/A   Scattered Clouds
4:55 AM 68.9 °F - 59.9 °F 73% 30.11 in 10.0 mi SSE 6.9 mph - N/A   Mostly Cloudy
5:15 AM 69.1 °F - 59.9 °F 72% 30.11 in 10.0 mi SSE 5.8 mph - N/A   Mostly Cloudy
5:35 AM 69.3 °F - 59.9 °F 72% 30.11 in 10.0 mi SSE 8.1 mph - N/A   Mostly Cloudy
5:55 AM 69.1 °F - 59.9 °F 72% 30.11 in 10.0 mi SSE 6.9 mph - N/A   Clear
6:15 AM 68.9 °F - 59.9 °F 73% 30.11 in 10.0 mi SSE 9.2 mph - N/A   Clear
6:35 AM 68.9 °F - 59.9 °F 73% 30.12 in 10.0 mi SSE 9.2 mph - N/A   Scattered Clouds
6:55 AM 69.3 °F - 60.1 °F 72% 30.13 in 10.0 mi South 10.4 mph - N/A   Mostly Cloudy
7:15 AM 69.1 °F - 60.3 °F 73% 30.12 in 10.0 mi SSE 8.1 mph - N/A   Scattered Clouds
7:35 AM 68.9 °F - 60.4 °F 74% 30.12 in 10.0 mi South 9.2 mph - N/A   Scattered Clouds
7:55 AM 70.5 °F - 61.0 °F 72% 30.12 in 10.0 mi SSE 8.1 mph - N/A   Mostly Cloudy
8:15 AM 71.6 °F - 60.8 °F 69% 30.13 in 10.0 mi SSE 12.7 mph - N/A   Overcast
8:35 AM 71.2 °F - 60.8 °F 69% 30.12 in 10.0 mi SSE 11.5 mph 18.4 mph N/A   Scattered Clouds
8:55 AM 72.7 °F - 61.0 °F 67% 30.12 in 10.0 mi South 13.8 mph - N/A   Scattered Clouds
9:15 AM 71.6 °F - 60.8 °F 69% 30.11 in 10.0 mi South 11.5 mph 18.4 mph N/A   Scattered Clouds
9:35 AM 73.0 °F - 60.8 °F 65% 30.11 in 10.0 mi South 15.0 mph 20.7 mph N/A   Clear
9:55 AM 74.5 °F - 60.6 °F 62% 30.11 in 10.0 mi South 16.1 mph 23.0 mph N/A   Scattered Clouds
10:15 AM 75.4 °F - 60.8 °F 60% 30.11 in 10.0 mi South 15.0 mph - N/A   Clear
10:35 AM 76.8 °F - 61.2 °F 58% 30.10 in 10.0 mi South 11.5 mph 19.6 mph N/A   Clear
10:55 AM 78.1 °F - 61.3 °F 56% 30.10 in 10.0 mi SSE 11.5 mph 18.4 mph N/A   Clear
11:15 AM 77.7 °F - 61.3 °F 57% 30.09 in 10.0 mi SSE 12.7 mph 18.4 mph N/A   Clear
11:35 AM 79.0 °F - 61.9 °F 56% 30.09 in 10.0 mi SSE 12.7 mph 19.6 mph N/A   Clear
11:55 AM 79.7 °F - 62.6 °F 56% 30.08 in 10.0 mi SSE 13.8 mph 20.7 mph N/A   Clear
12:15 PM 81.1 °F 82.4 °F 63.1 °F 54% 30.07 in 10.0 mi SSE 12.7 mph 19.6 mph N/A   Clear
12:35 PM 82.9 °F 84.0 °F 63.3 °F 51% 30.06 in 10.0 mi South 13.8 mph 20.7 mph N/A   Clear
12:55 PM 83.8 °F 85.1 °F 63.7 °F 51% 30.05 in 10.0 mi SSE 13.8 mph 23.0 mph N/A   Clear
1:15 PM 84.2 °F 85.6 °F 64.4 °F 51% 30.05 in 10.0 mi South 17.3 mph 24.2 mph N/A   Clear
1:35 PM 84.4 °F 86.1 °F 64.8 °F 52% 30.05 in 10.0 mi South 17.3 mph 26.5 mph N/A   Clear
1:55 PM 84.6 °F 86.6 °F 65.5 °F 53% 30.05 in 10.0 mi SSE 13.8 mph 26.5 mph N/A   Clear
2:15 PM 86.4 °F 88.7 °F 66.2 °F 51% 30.04 in 10.0 mi South 17.3 mph 25.3 mph N/A   Clear
2:35 PM 86.5 °F 89.0 °F 66.6 °F 51% 30.04 in 10.0 mi South 16.1 mph 23.0 mph N/A   Scattered Clouds
2:55 PM 85.3 °F 87.9 °F 67.1 °F 54% 30.04 in 10.0 mi South 15.0 mph 24.2 mph N/A   Scattered Clouds
3:15 PM 86.9 °F 89.9 °F 67.5 °F 52% 30.02 in 10.0 mi South 13.8 mph 21.9 mph N/A   Mostly Cloudy
3:35 PM 87.3 °F 90.2 °F 66.9 °F 51% 30.02 in 10.0 mi South 17.3 mph 24.2 mph N/A   Mostly Cloudy
3:55 PM 87.6 °F 90.8 °F 67.3 °F 51% 30.02 in 10.0 mi South 17.3 mph 23.0 mph N/A   Mostly Cloudy
4:15 PM 88.0 °F 91.0 °F 67.5 °F 50% 30.02 in 10.0 mi South 16.1 mph 25.3 mph N/A   Mostly Cloudy
4:35 PM 86.5 °F 89.6 °F 67.8 °F 53% 30.02 in 10.0 mi South 19.6 mph 25.3 mph N/A   Scattered Clouds
4:55 PM 86.2 °F 89.4 °F 67.6 °F 54% 30.01 in 10.0 mi South 15.0 mph 21.9 mph N/A   Mostly Cloudy
5:15 PM 86.4 °F 89.4 °F 67.5 °F 53% 30.01 in 10.0 mi SSW 19.6 mph 27.6 mph N/A   Mostly Cloudy
5:35 PM 86.4 °F 89.7 °F 68.0 °F 54% 30.01 in 10.0 mi South 10.4 mph 24.2 mph N/A   Scattered Clouds
5:55 PM 87.1 °F 89.9 °F 67.1 °F 51% 30.00 in 10.0 mi South 20.7 mph 28.8 mph N/A   Scattered Clouds
6:15 PM 85.3 °F 88.2 °F 67.5 °F 55% 30.00 in 10.0 mi SSW 17.3 mph 31.1 mph N/A   Scattered Clouds
6:35 PM 84.7 °F 87.9 °F 67.8 °F 57% 30.00 in 10.0 mi South 18.4 mph 27.6 mph N/A   Scattered Clouds
6:55 PM 83.7 °F 86.7 °F 68.2 °F 59% 29.99 in 10.0 mi South 19.6 mph 26.5 mph N/A   Clear
7:15 PM 83.3 °F 86.4 °F 68.0 °F 60% 29.99 in 10.0 mi South 13.8 mph 25.3 mph N/A   Clear
7:35 PM 82.4 °F 85.2 °F 67.6 °F 61% 29.99 in 10.0 mi South 16.1 mph 21.9 mph N/A   Clear
7:55 PM 81.7 °F 84.3 °F 67.5 °F 62% 29.98 in 10.0 mi South 16.1 mph 25.3 mph N/A   Clear
8:15 PM 81.0 °F 83.8 °F 68.0 °F 65% 29.98 in 10.0 mi South 13.8 mph 21.9 mph N/A   Clear
8:35 PM 80.6 °F 83.5 °F 68.5 °F 67% 29.99 in 10.0 mi South 16.1 mph 21.9 mph N/A   Clear
8:55 PM 80.1 °F 82.9 °F 69.1 °F 69% 29.99 in 10.0 mi South 13.8 mph 21.9 mph N/A   Clear
9:15 PM 79.7 °F - 69.4 °F 71% 29.99 in 10.0 mi South 13.8 mph 27.6 mph N/A   Clear
9:35 PM 79.3 °F - 69.6 °F 72% 29.98 in 10.0 mi South 15.0 mph 21.9 mph N/A   Clear
9:55 PM 79.3 °F - 69.3 °F 71% 29.98 in 10.0 mi South 16.1 mph 23.0 mph N/A   Clear
10:15 PM 79.7 °F - 68.9 °F 69% 29.98 in 10.0 mi South 12.7 mph 20.7 mph N/A   Clear
10:35 PM 79.7 °F - 68.4 °F 68% 29.99 in 10.0 mi South 15.0 mph 21.9 mph N/A   Clear
10:55 PM 80.1 °F 82.7 °F 68.2 °F 67% 29.99 in 10.0 mi South 16.1 mph 24.2 mph N/A   Clear
11:15 PM 79.9 °F - 68.2 °F 67% 29.99 in 10.0 mi South 18.4 mph 24.2 mph N/A   Clear
11:35 PM 79.7 °F - 68.4 °F 68% 29.99 in 10.0 mi SSW 16.1 mph 23.0 mph N/A   Clear
11:55 PM 79.5 °F - 68.2 °F 68% 29.99 in 10.0 mi South 15.0 mph 20.7 mph N/A   Clear